Regional Weather Roundup
Issued by NWS Green Bay, WI

Home | Current Version | Previous Version | Text Only | Print | Product List | Glossary On
Versions: 1 2 3 4 5 6 7 8 9 10 11 12 13 14 15 16 17 18 19 20 21 22 23 24 25 26 27 28 29 30 31 32 33 34 35 36 37 38 39 40 41 42 43 44 45 46 47 48 49 50
000
ASUS43 KGRB 291110
RWRGRB

NORTH-CENTRAL AND NORTHEAST WISCONSIN REGIONAL WEATHER ROUNDUP
NATIONAL WEATHER SERVICE GREEN BAY WI
600 AM CDT SUN MAR 29 2015

WIZ005-009-010>012-018-019-291200-
NORTH CENTRAL WISCONSIN

CITY           SKY/WX    TMP DP  RH WIND       PRES   REMARKS
IRONWOOD       MOCLDY    34  16  47 S21G29    29.65F
MANITOWISH WTR MOCLDY    30  16  55 S14G21    29.75F
ARBOR VITAE    MOCLDY    32  17  54 S16G23    29.78F
EAGLE RIVER    NOT AVBL
LAND O LAKES   MOCLDY    30  14  51 S9G20     29.77F
RHINELANDER    MOCLDY    29  14  53 S14G20    29.84F
PHILLIPS       CLOUDY    30  15  54 S14       29.78F
ANTIGO         MOCLDY    29  15  57 SW15G21   29.90S
TOMAHAWK       PTCLDY    29  15  56 S5        29.84F
MERRILL        PTCLDY    30  15  53 S9G17     29.87F
$$

WIZ013-073-291200-
NORTHEAST WISCONSIN

CITY           SKY/WX    TMP DP  RH WIND       PRES   REMARKS
IRON MOUNTAIN  PTCLDY    29  14  53 S12       29.88F
MARINETTE      MOCLDY    30  18  59 SW14      29.97S
OCONTO         MOCLDY    30  17  57 S10G22    29.99S
$$

WIZ017-030-035>037-045-291200-
CENTRAL WISCONSIN

CITY           SKY/WX    TMP DP  RH WIND       PRES   REMARKS
MEDFORD        PTCLDY    29  18  63 S14       29.84F
WAUSAU         PTCLDY    30  15  53 S13       29.89F
MOSINEE        CLEAR     28  16  59 S14       29.92F
MARSHFIELD     PTCLDY    30  16  56 S14       29.87F
WISC RAPIDS    PTCLDY    31  14  49 S10       29.95F
STEVENS POINT  PTCLDY    28  14  54 S9G16     29.94F
WAUPACA        MOCLDY    32  16  52 S9        29.98F
SHAWANO        MOCLDY    32  17  55 S8        29.96S
CLINTONVILLE   MOCLDY    32  18  55 S12G17    29.97S
$$

WIZ038-039-048-051-291200-
FOX VALLEY

CITY           SKY/WX    TMP DP  RH WIND       PRES   REMARKS
NWS GREEN BAY  MOCLDY    32  19  58 S18G24    30.00F
APPLETON       MOCLDY    28  16  59 S20       30.00S
OSHKOSH        PTCLDY    29  17  61 S16       30.01S
FOND DU LAC    PTCLDY    31  17  56 S18       30.02F
$$

WIZ022-050-052-291200-
EAST CENTRAL WISCONSIN

CITY           SKY/WX    TMP DP  RH WIND       PRES   REMARKS
STURGEON BAY   MOCLDY    30  14  51 S15       30.01S
MANITOWOC      MOCLDY    30  17  58 S14       30.03F
SHEBOYGAN      MOCLDY    28  16  60 S13       30.04F
$$

LMZ563-521-522-541>543-291200-
LAKESHORE

STATION/POSITION TIME  TEMP    WIND        PRES    VSBY  WAVE
                       AIR SEA DIR/SP/G                  HT/PER
                 (UTC) (F)     (DEG/KT/KT) (MB)    (MI)  (FT/S)
SHEBOYGAN LKSHOR 1100   33     200/ 21/ 24 1018.3F
NORTHPORT PIER   1100   32     190/  7/ 14 1015.6F
SISTER BAY LKSHO 1100   32     190/ 18/ 26   N/A
CHAMBERS ISLAND  1100   29     160/  8/ 15 1015.2S
$$



USA.gov is the U.S. government's official web portal to all federal, state and local government web resources and services.